Wind_Speed
30 30 30 30 29 29 29 28 28 28 28 28 28 28 30 30 30 31 31 31 32 32 32 33 34 35 36 37 37 37 38 40 42 42 41 42 43 44 44 44 44 43 42
28 29 29 29 29 29 29 29 29 29 29 28 28 28 29 29 30 30 31 31 31 31 32 33 35 36 36 37 37 37 38 39 40 40 40 40 41 41 41 41 41 40 38
26 27 27 27 27 27 28 28 28 28 28 27 27 27 27 28 28 29 30 31 32 32 33 33 34 34 34 35 35 36 37 37 38 39 39 39 39 39 38 38 37 37 35
26 26 26 26 26 26 26 26 26 27 27 27 26 27 27 28 28 28 29 30 31 31 31 32 32 33 33 33 34 35 36 36 37 36 36 36 36 36 36 35 34 33 32
23 24 24 24 24 25 24 24 25 26 26 25 25 26 26 27 27 27 28 28 28 30 30 31 31 31 32 32 33 34 34 34 34 34 34 34 33 33 32 31 30 29 30
19 19 20 22 22 22 23 23 23 23 23 23 24 25 26 26 26 27 27 28 29 29 30 30 31 30 31 31 31 32 32 32 32 32 31 30 30 29 28 28 27 27 27
18 18 19 19 20 20 21 22 23 23 23 23 23 24 24 25 25 26 26 26 26 27 27 27 27 28 28 29 29 29 29 29 29 29 28 27 26 26 25 25 25 25 25
17 18 18 19 19 20 20 21 21 21 21 21 22 22 23 23 23 23 24 24 25 25 26 26 26 26 27 27 28 28 28 27 26 25 25 24 24 23 23 23 23 22 22
15 15 15 16 16 17 18 19 20 20 20 20 20 20 20 21 22 22 23 23 24 24 25 24 25 25 25 26 26 25 25 24 24 23 23 22 21 21 20 20 20 20 18
14 13 13 13 14 14 15 16 17 17 18 18 18 19 19 20 20 20 21 21 22 22 23 23 23 24 24 24 24 23 23 22 22 21 21 20 19 19 19 19 18 17 16
11 11 12 12 12 13 13 14 14 14 15 16 16 17 18 18 19 19 19 19 20 20 21 21 22 22 21 21 21 20 20 20 19 19 19 18 18 18 18 17 15 15 14
10 10 10 11 11 11 12 12 13 13 14 14 15 15 16 17 17 18 18 18 19 19 18 18 18 18 18 18 17 17 17 17 17 17 17 17 17 16 15 14 13 13 12
9 9 10 10 10 10 11 11 12 12 13 13 14 14 15 15 16 16 16 16 16 16 16 16 16 16 16 16 15 15 15 15 15 15 15 15 15 14 13 12 11 10 10
8 8 8 9 9 9 9 9 10 10 10 11 11 12 12 13 13 13 13 13 13 13 13 13 14 14 14 14 14 14 14 14 14 14 14 13 12 11 10 9 8 8 8
6 7 7 7 7 7 7 7 8 8 9 9 9 9 9 9 10 10 10 10 10 11 11 11 12 12 12 13 13 13 13 13 13 12 12 10 9 8 8 7 7 6 6
5 5 5 5 5 5 6 6 7 7 7 7 7 7 8 8 8 9 9 9 9 9 10 10 11 11 11 11 11 12 12 11 11 10 9 8 7 7 6 5 5 4 3
4 4 4 4 4 5 5 5 5 6 6 6 6 7 7 7 8 8 8 8 8 8 9 9 10 10 11 11 11 11 10 9 9 8 7 6 5 5 4 4 2 2 1
6 5 5 5 4 4 5 5 5 6 6 6 7 7 7 7 7 8 8 8 8 8 8 9 9 10 10 10 10 9 8 7 7 6 5 4 3 3 2 2 1 2 3
8 8 7 7 7 7 7 7 7 7 7 7 7 7 8 8 8 8 8 8 8 8 8 9 9 10 10 9 9 8 6 5 5 4 3 3 2 2 2 2 3 4 4
11 11 10 10 9 9 9 9 9 9 9 8 8 9 9 9 9 9 9 9 9 9 9 9 10 10 10 9 8 7 6 5 4 3 2 2 2 2 3 4 5 5 5
12 12 12 11 11 11 11 11 11 10 10 10 10 10 10 10 10 10 10 10 10 10 10 10 10 10 10 10 9 8 6 5 4 3 3 3 4 4 5 5 5 5 5
14 14 13 13 13 13 12 12 12 12 11 11 11 11 11 11 11 11 11 11 11 11 11 11 11 11 10 10 9 9 8 7 6 6 5 5 5 5 5 5 5 5 5
15 15 15 14 14 14 14 14 13 13 13 13 12 12 12 12 12 12 12 12 12 12 12 11 11 11 11 10 10 10 9 9 8 7 7 6 6 6 5 5 5 5 5
15 16 15 15 15 14 14 14 14 14 14 13 13 13 13 13 13 13 13 13 13 12 12 12 12 11 11 11 10 10 9 9 8 8 7 7 6 6 5 5 5 4 5
16 16 16 15 15 15 15 14 14 14 14 14 13 13 13 13 13 13 13 13 13 13 13 12 12 12 11 11 10 10 9 9 8 8 7 6 6 5 5 4 4 4 5
16 15 15 15 15 15 15 15 15 14 14 14 14 14 13 13 13 13 13 13 13 13 13 12 12 12 11 11 10 9 9 8 8 7 6 6 5 5 4 4 4 5 6
Wind_Direction
262 263 264 265 266 265 266 266 266 266 267 269 266 266 265 263 264 264 264 263 264 265 268 271 274 277 279 280 281 282 284 286 288 289 291 292 294 294 294 295 296 296 296
263 264 265 266 266 265 264 267 266 266 267 266 266 266 265 266 265 265 265 266 269 270 272 274 277 278 280 281 283 285 287 288 290 291 292 293 294 295 296 297 297 297 297
265 263 263 265 265 264 264 265 267 268 268 267 267 267 268 270 269 268 267 268 269 272 274 276 277 279 282 283 285 287 288 289 290 291 292 294 294 295 296 297 297 297 297
267 266 265 264 263 263 263 264 266 266 266 268 267 267 269 270 270 268 268 270 271 274 276 277 278 282 284 285 286 287 288 289 290 292 292 293 295 295 296 297 297 297 298
268 266 264 262 263 262 262 263 266 267 265 264 266 267 269 270 269 269 271 272 274 276 278 280 283 284 285 286 286 288 289 290 291 292 293 294 295 296 296 297 298 298 299
268 266 267 266 265 264 265 266 267 268 267 269 269 271 274 275 275 276 277 278 279 279 280 282 283 284 285 286 287 288 289 291 292 292 293 294 295 296 297 298 299 300 300
273 273 274 272 268 267 267 268 269 270 271 271 274 276 277 277 277 278 279 280 280 281 282 282 283 284 286 287 289 290 291 292 293 293 294 295 296 296 297 298 299 300 300
278 277 276 274 270 268 268 269 270 271 275 278 280 279 278 278 279 279 279 280 280 281 282 283 284 285 287 288 289 290 292 293 295 295 295 296 296 296 296 297 298 300 301
282 282 278 277 273 273 274 274 275 276 278 279 279 279 280 281 281 280 280 280 281 282 283 284 286 287 288 290 291 292 292 293 293 293 294 294 295 296 297 298 299 300 301
283 282 281 279 279 279 280 280 280 279 281 283 284 283 283 283 282 282 282 283 283 284 285 286 287 289 291 292 293 293 292 292 292 292 292 292 293 295 297 299 299 298 300
282 280 282 281 282 283 283 283 282 282 282 282 282 284 285 285 286 286 286 286 287 287 288 289 290 292 292 293 293 293 293 293 293 292 291 292 292 295 297 298 296 296 300
287 284 284 285 285 286 284 283 283 284 284 284 284 285 287 288 288 288 289 289 290 290 291 292 293 294 295 295 295 296 295 295 295 294 293 293 294 295 296 295 294 295 298
289 289 287 292 291 289 286 286 287 286 286 287 288 288 290 291 292 294 293 293 293 294 295 296 298 298 298 297 297 297 297 298 297 296 295 296 296 296 296 296 294 295 299
290 291 294 296 295 294 293 295 294 292 291 293 293 294 296 296 296 298 298 299 300 300 300 301 302 301 300 300 300 300 300 302 302 301 301 302 300 298 297 296 295 295 299
299 299 299 301 301 301 301 302 304 304 304 303 303 303 305 305 304 304 304 304 305 305 305 306 308 308 306 304 304 304 304 305 305 306 307 307 305 303 301 299 297 298 301
318 311 309 309 311 315 316 317 317 319 321 321 320 320 320 318 316 315 314 312 312 311 312 314 315 315 314 313 311 309 307 306 306 308 310 310 308 308 307 304 303 303 303
358 355 347 343 344 343 341 342 343 344 346 346 343 340 336 333 332 330 328 326 325 325 324 323 322 322 322 321 319 317 314 310 308 308 309 310 311 312 316 317 316 324 352
29 31 29 26 27 26 24 23 18 16 12 8 4 1 356 352 350 349 347 345 342 338 336 335 334 334 333 331 329 326 323 318 315 312 312 314 319 325 334 353 39 81 91
50 53 55 56 55 53 47 41 35 31 28 25 22 20 18 15 13 10 8 4 359 356 354 352 349 348 347 345 343 340 335 331 328 326 326 330 345 8 48 83 94 98 93
61 64 66 63 59 54 49 46 43 41 39 37 34 31 29 26 23 21 19 16 13 10 7 4 1 360 359 360 359 357 356 355 355 358 10 36 66 81 93 99 100 97 89
65 66 65 61 56 53 52 50 47 44 41 39 37 36 35 33 30 28 26 23 19 16 14 13 12 11 12 12 14 17 19 24 35 53 72 83 89 92 97 99 96 90 82
63 63 61 59 56 55 53 50 47 45 44 45 43 40 38 35 32 29 28 27 25 23 21 20 20 20 22 26 31 36 43 52 62 73 81 85 89 93 96 93 88 83 77
63 62 62 60 58 55 53 51 49 48 48 47 45 43 41 38 36 34 32 31 30 30 29 29 30 32 34 38 43 48 53 58 64 71 77 83 86 86 84 83 81 77 70
65 64 63 61 58 55 53 51 49 47 46 46 45 44 42 41 39 37 36 35 35 34 34 34 35 37 39 42 46 49 53 57 61 65 70 74 75 74 72 71 68 63 53
65 64 62 60 58 56 53 51 48 47 46 46 45 43 42 40 39 38 38 38 37 37 37 37 37 38 40 42 44 46 49 53 56 59 61 63 63 60 56 53 47 37 25
62 60 59 58 56 54 52 49 47 46 45 44 43 42 41 40 38 37 36 36 36 36 36 36 37 37 38 40 41 43 45 47 48 49 49 48 45 40 34 24 13 3 354
Height
5750 5751 5752 5753 5754 5755 5756 5757 5757 5758 5759 5759 5760 5761 5761 5762 5763 5764 5766 5767 5767 5768 5768 5769 5769 5769 5769 5768 5767 5766 5764 5762 5760 5759 5757 5754 5751 5748 5745 5742 5739 5736 5733
5744 5745 5746 5746 5747 5748 5749 5750 5750 5751 5752 5753 5753 5754 5754 5755 5756 5757 5758 5759 5759 5760 5761 5761 5761 5760 5760 5759 5758 5756 5755 5752 5750 5748 5747 5744 5741 5738 5735 5732 5729 5726 5723
5738 5739 5739 5740 5741 5741 5742 5743 5744 5744 5745 5745 5746 5747 5747 5748 5749 5750 5750 5751 5752 5752 5753 5753 5752 5752 5751 5750 5749 5748 5746 5743 5741 5739 5737 5734 5732 5729 5726 5723 5720 5717 5714
5732 5732 5733 5734 5734 5735 5736 5736 5737 5738 5738 5739 5739 5740 5741 5741 5742 5743 5743 5744 5744 5744 5745 5744 5744 5743 5743 5742 5740 5739 5736 5734 5732 5730 5728 5725 5723 5720 5717 5714 5711 5708 5706
5725 5726 5726 5727 5728 5729 5729 5730 5731 5731 5731 5732 5732 5733 5734 5735 5735 5736 5736 5736 5736 5737 5737 5736 5736 5735 5734 5733 5731 5729 5727 5725 5723 5721 5719 5716 5714 5711 5708 5706 5703 5700 5698
5720 5720 5721 5721 5722 5723 5723 5724 5724 5725 5725 5726 5726 5727 5728 5728 5728 5728 5729 5729 5729 5729 5728 5728 5728 5727 5726 5724 5723 5721 5719 5717 5715 5713 5710 5708 5706 5703 5700 5698 5696 5694 5691
5715 5715 5716 5716 5717 5717 5718 5718 5719 5719 5719 5720 5720 5721 5721 5721 5721 5722 5722 5722 5722 5721 5721 5720 5720 5719 5717 5716 5714 5713 5711 5709 5707 5705 5703 5700 5698 5696 5694 5692 5689 5687 5685
5711 5711 5711 5711 5711 5712 5712 5713 5713 5713 5714 5714 5714 5715 5715 5715 5715 5715 5715 5715 5714 5714 5714 5713 5712 5710 5709 5708 5707 5705 5703 5701 5700 5697 5696 5694 5692 5690 5688 5686 5684 5682 5679
5706 5706 5707 5707 5707 5707 5707 5707 5708 5708 5708 5709 5709 5709 5709 5709 5709 5709 5708 5708 5708 5707 5706 5705 5704 5703 5702 5701 5699 5698 5696 5694 5693 5691 5689 5688 5686 5684 5682 5680 5678 5676 5675
5703 5703 5703 5703 5703 5703 5703 5703 5703 5703 5704 5704 5704 5704 5704 5703 5703 5703 5702 5702 5701 5700 5700 5699 5698 5697 5695 5694 5693 5691 5690 5688 5687 5685 5684 5682 5680 5678 5677 5675 5673 5672 5670
5699 5699 5699 5699 5699 5699 5699 5699 5699 5699 5700 5700 5699 5699 5699 5698 5698 5697 5697 5696 5695 5695 5694 5693 5692 5690 5689 5688 5687 5685 5684 5682 5681 5680 5678 5677 5675 5674 5672 5670 5669 5667 5666
5696 5696 5696 5696 5696 5696 5696 5695 5696 5696 5695 5695 5695 5695 5694 5694 5693 5692 5692 5691 5690 5689 5688 5687 5686 5685 5684 5682 5681 5680 5679 5678 5676 5675 5674 5672 5671 5669 5667 5666 5665 5663 5662
5694 5694 5693 5693 5693 5693 5693 5693 5692 5692 5692 5691 5691 5691 5690 5689 5689 5688 5687 5687 5686 5685 5684 5683 5682 5681 5679 5678 5677 5676 5675 5673 5672 5671 5669 5668 5666 5665 5663 5662 5661 5660 5659
5692 5691 5691 5691 5691 5690 5690 5690 5690 5689 5689 5688 5688 5687 5687 5686 5685 5684 5684 5683 5682 5681 5680 5679 5678 5677 5676 5674 5673 5672 5670 5669 5668 5667 5665 5664 5662 5661 5660 5659 5658 5658 5657
5690 5690 5689 5689 5689 5689 5688 5688 5687 5687 5687 5686 5685 5685 5684 5683 5682 5682 5681 5680 5679 5678 5678 5677 5675 5674 5672 5671 5670 5668 5667 5666 5664 5663 5662 5660 5659 5658 5657 5657 5656 5655 5655
5689 5688 5688 5688 5688 5687 5687 5687 5686 5686 5685 5684 5684 5683 5682 5681 5680 5680 5679 5678 5677 5676 5675 5674 5673 5671 5670 5668 5667 5665 5664 5662 5661 5660 5659 5658 5657 5656 5656 5655 5654 5654 5654
5689 5688 5688 5687 5687 5687 5686 5686 5685 5685 5684 5684 5683 5682 5681 5680 5679 5678 5677 5676 5675 5674 5673 5672 5671 5669 5667 5666 5664 5662 5661 5660 5659 5658 5657 5656 5656 5655 5654 5654 5653 5653 5653
5689 5688 5688 5687 5687 5687 5686 5686 5686 5685 5684 5683 5683 5682 5681 5680 5679 5678 5677 5676 5674 5673 5672 5671 5669 5667 5665 5664 5662 5660 5659 5658 5657 5656 5656 5655 5654 5654 5653 5653 5653 5653 5652
5690 5690 5689 5689 5689 5688 5688 5687 5687 5686 5685 5684 5683 5682 5681 5680 5679 5678 5676 5675 5674 5673 5671 5670 5668 5666 5664 5662 5661 5659 5658 5657 5656 5655 5655 5654 5654 5654 5653 5653 5653 5653 5653
5693 5692 5692 5692 5691 5690 5690 5689 5688 5687 5686 5685 5684 5683 5682 5681 5680 5678 5677 5676 5674 5673 5671 5670 5668 5666 5664 5662 5660 5659 5657 5656 5655 5655 5655 5654 5654 5654 5654 5654 5654 5654 5654
5696 5695 5695 5694 5693 5693 5692 5691 5690 5689 5688 5687 5686 5685 5684 5683 5681 5680 5678 5677 5675 5673 5672 5670 5668 5666 5664 5662 5661 5659 5658 5657 5656 5655 5655 5655 5655 5655 5655 5655 5655 5655 5655
5700 5699 5698 5697 5697 5696 5695 5694 5693 5692 5691 5689 5688 5687 5686 5684 5683 5681 5680 5678 5676 5675 5673 5671 5669 5668 5666 5664 5662 5660 5659 5658 5657 5657 5657 5657 5657 5657 5657 5657 5657 5657 5656
5704 5703 5702 5701 5700 5699 5698 5697 5696 5695 5693 5692 5691 5689 5688 5686 5685 5683 5682 5680 5678 5676 5675 5673 5671 5669 5667 5666 5664 5663 5662 5660 5660 5659 5659 5659 5659 5659 5658 5658 5658 5658 5657
5708 5707 5706 5705 5704 5703 5702 5700 5699 5698 5696 5695 5694 5692 5691 5689 5687 5686 5684 5682 5681 5679 5677 5675 5673 5672 5670 5668 5667 5666 5664 5663 5662 5662 5661 5661 5661 5661 5660 5660 5660 5659 5659
5712 5711 5710 5709 5708 5707 5705 5704 5703 5701 5700 5698 5697 5695 5694 5692 5690 5689 5687 5685 5683 5681 5680 5678 5676 5674 5673 5671 5670 5668 5667 5666 5665 5665 5664 5663 5663 5663 5662 5662 5661 5660 5659
5716 5715 5714 5713 5711 5710 5709 5708 5706 5705 5703 5701 5700 5698 5697 5695 5693 5691 5690 5688 5686 5684 5682 5681 5679 5677 5676 5674 5673 5671 5670 5669 5668 5667 5666 5666 5665 5664 5663 5663 5662 5661 5660